Weather History for KHCO - December, 2011

Change the Weather History Date:

Sunday, December 18, 2011

  Actual Average Record
Temperature  
Mean Temperature 30 °F -  
Max Temperature 42 °F 16 °F 42 °F (2011)
Min Temperature 19 °F 0 °F -29 °F (1975)
Degree Days  
Heating Degree Days 34    
Moisture  
Dew Point 26 °F    
Average Humidity 90    
Maximum Humidity 100    
Minimum Humidity 70    
Precipitation  
Precipitation 0.00 in - - ()
Sea Level Pressure  
Sea Level Pressure 29.66 in    
Wind  
Wind Speed 13 mph (SSW)    
Max Wind Speed 24 mph    
Max Gust Speed 30 mph    
Visibility 10 miles    
Events Snow    
Averages and records for this station are not official NWS values.
T = Trace of Precipitation, MM = Missing Value Source: NWS Daily Summary

Daily Weather History Graph

Daily Weather History Graph

Search for Another Location

Airport or City:

Trip Planner

Search our weather history database for the weather conditions in past years. The results will help you decide how hot, cold, wet, or windy it might be!

Date:

Astronomy

Dec. 18, 2011 Rise Set
Actual Time 8:16 AM CST 4:32 PM CST
Civil Twilight 7:39 AM CST 5:09 PM CST
Nautical Twilight 6:58 AM CST 5:50 PM CST
Astronomical Twilight 6:20 AM CST 6:28 PM CST
Moon 12:52 AM CST (12/18) 12:21 PM CST (12/18)
Length of Visible Light 9h 30m
Length of Day
8h 16m
Last Quarter, 42% of the Moon is Illuminated
Dec 18
Last Quarter
Dec 24
New
Jan 1
First Quarter
Jan 9
Full
Jan 16
Last Quarter

Hourly Weather History & Observations

Time (CST) Temp. Windchill Dew Point Humidity Pressure Visibility Wind Dir Wind Speed Gust Speed Precip Events Conditions
12:14 AM 19.4 °F 8.6 °F 17.6 °F 93% 29.87 in 10.0 mi SSE 9.2 mph - N/A   Scattered Clouds
12:34 AM 19.4 °F 8.6 °F 17.6 °F 93% 29.86 in 10.0 mi SSE 9.2 mph - N/A   Clear
12:54 AM 19.4 °F 7.2 °F 17.6 °F 93% 29.84 in 10.0 mi SE 11.5 mph - N/A   Clear
1:14 AM 19.4 °F 6.0 °F 17.6 °F 93% 29.82 in 10.0 mi SSE 13.8 mph - N/A   Clear
1:34 AM 19.4 °F 6.0 °F 17.6 °F 93% 29.80 in 10.0 mi SSE 13.8 mph - N/A   Clear
1:54 AM 19.4 °F 6.0 °F 19.4 °F 100% 29.78 in 10.0 mi SSE 13.8 mph - N/A   Clear
2:14 AM 21.2 °F 7.8 °F 19.4 °F 93% 29.76 in 10.0 mi SSE 15.0 mph - N/A   Clear
2:34 AM 21.2 °F 9.5 °F 19.4 °F 93% 29.76 in 10.0 mi SSE 11.5 mph - N/A   Clear
3:14 AM 23.0 °F 10.6 °F 21.2 °F 93% 29.74 in 10.0 mi South 13.8 mph - N/A   Clear
3:34 AM 21.2 °F 7.8 °F 21.2 °F 100% 29.73 in 10.0 mi South 15.0 mph - N/A   Clear
3:54 AM 21.2 °F 8.9 °F 19.4 °F 93% 29.72 in 10.0 mi South 12.7 mph - N/A   Clear
4:14 AM 21.2 °F 8.3 °F 19.4 °F 93% 29.70 in 10.0 mi South 13.8 mph - N/A   Clear
4:34 AM 21.2 °F 7.8 °F 21.2 °F 100% 29.70 in 10.0 mi South 15.0 mph - N/A   Clear
4:54 AM 23.0 °F 10.1 °F 21.2 °F 93% 29.70 in 10.0 mi South 15.0 mph - N/A   Clear
5:14 AM 24.8 °F 12.9 °F 21.2 °F 86% 29.68 in 10.0 mi South 13.8 mph - N/A   Clear
5:34 AM 24.8 °F 12.4 °F 21.2 °F 86% 29.67 in 10.0 mi South 15.0 mph - N/A   Clear
5:54 AM 24.8 °F 11.9 °F 23.0 °F 93% 29.66 in 10.0 mi South 16.1 mph - N/A   Clear
6:14 AM 24.8 °F 12.9 °F 23.0 °F 93% 29.66 in 10.0 mi South 13.8 mph - N/A   Clear
6:35 AM 24.8 °F 14.0 °F 23.0 °F 93% 29.65 in 10.0 mi South 11.5 mph - N/A   Clear
6:54 AM 24.8 °F 14.0 °F 23.0 °F 93% 29.64 in 10.0 mi South 11.5 mph - N/A   Clear
7:14 AM 24.8 °F 15.3 °F 23.0 °F 93% 29.63 in 10.0 mi South 9.2 mph - N/A   Clear
7:34 AM 24.8 °F 15.3 °F 23.0 °F 93% 29.63 in 10.0 mi South 9.2 mph - N/A   Clear
8:14 AM 24.8 °F 14.0 °F 23.0 °F 93% 29.61 in 10.0 mi South 11.5 mph - N/A   Clear
8:34 AM 24.8 °F 14.6 °F 24.8 °F 100% 29.60 in 10.0 mi South 10.4 mph - N/A   Scattered Clouds
8:54 AM 24.8 °F 13.4 °F 24.8 °F 100% 29.59 in 10.0 mi South 12.7 mph - N/A   Mostly Cloudy
9:14 AM 26.6 °F 16.2 °F 24.8 °F 93% 29.58 in 10.0 mi South 11.5 mph - N/A   Scattered Clouds
9:34 AM 28.4 °F 19.1 °F 26.6 °F 93% 29.57 in 10.0 mi South 10.4 mph - N/A   Scattered Clouds
9:54 AM 30.2 °F 18.9 °F 26.6 °F 86% 29.56 in 10.0 mi SSW 16.1 mph - N/A   Scattered Clouds
10:14 AM 30.2 °F 20.2 °F 28.4 °F 93% 29.56 in 10.0 mi South 12.7 mph - N/A   Clear
10:34 AM 33.8 °F 24.3 °F 28.4 °F 81% 29.56 in 10.0 mi SSW 13.8 mph - N/A   Clear
10:54 AM 35.6 °F 26.2 °F 30.2 °F 81% 29.55 in 10.0 mi SSW 15.0 mph - N/A   Clear
11:14 AM 35.6 °F 27.5 °F 30.2 °F 81% 29.55 in 10.0 mi SSW 11.5 mph - N/A   Clear
11:34 AM 35.6 °F 28.0 °F 30.2 °F 81% 29.54 in 10.0 mi SSW 10.4 mph - N/A   Clear
11:54 AM 37.4 °F 30.3 °F 32.0 °F 81% 29.54 in 10.0 mi SSW 10.4 mph - N/A   Clear
12:14 PM 39.2 °F 32.0 °F 33.8 °F 81% 29.52 in 10.0 mi SW 11.5 mph - N/A   Clear
12:34 PM 41.0 °F 34.3 °F 33.8 °F 76% 29.51 in 10.0 mi SW 11.5 mph - N/A   Clear
12:54 PM 41.0 °F 33.9 °F 33.8 °F 76% 29.50 in 10.0 mi SW 12.7 mph - N/A   Clear
1:14 PM 42.8 °F 36.6 °F 33.8 °F 70% 29.50 in 10.0 mi WSW 11.5 mph - N/A   Clear
1:34 PM 42.8 °F 36.6 °F 33.8 °F 70% 29.51 in 10.0 mi WSW 11.5 mph - N/A   Clear
2:34 PM 42.8 °F 35.4 °F 33.8 °F 70% 29.52 in 10.0 mi WNW 15.0 mph - N/A   Clear
2:54 PM 42.8 °F 35.8 °F 33.8 °F 70% 29.53 in 10.0 mi NNW 13.8 mph - N/A   Clear
3:34 PM 37.4 °F 27.5 °F 32.0 °F 81% 29.56 in 10.0 mi NNW 18.4 mph 23.0 mph N/A   Scattered Clouds
3:54 PM 37.4 °F 27.8 °F 32.0 °F 81% 29.57 in 10.0 mi NNW 17.3 mph 23.0 mph N/A   Scattered Clouds
4:14 PM 35.6 °F 26.6 °F 30.2 °F 81% 29.59 in 10.0 mi NNW 13.8 mph 19.6 mph N/A   Mostly Cloudy
5:14 PM 33.8 °F 22.2 °F 30.2 °F 87% 29.64 in 5.0 mi NNW 20.7 mph 27.6 mph N/A Snow Light Snow
5:34 PM 32.0 °F 20.8 °F 32.0 °F 100% 29.66 in 4.0 mi NNW 17.3 mph - N/A Snow Light Snow
5:54 PM 32.0 °F 20.5 °F 32.0 °F 100% 29.67 in 4.0 mi North 18.4 mph 24.2 mph N/A Snow Light Snow
6:14 PM 32.0 °F 19.8 °F 32.0 °F 100% 29.69 in 7.0 mi NNW 20.7 mph 25.3 mph N/A Snow Light Snow
6:34 PM 32.0 °F 20.5 °F 32.0 °F 100% 29.71 in 3.0 mi NNW 18.4 mph 25.3 mph N/A Snow Light Snow
6:54 PM 32.0 °F 20.8 °F 32.0 °F 100% 29.73 in 10.0 mi NNW 17.3 mph 25.3 mph N/A   Overcast
7:14 PM 30.2 °F 17.4 °F 30.2 °F 100% 29.74 in 10.0 mi NNW 20.7 mph 26.5 mph N/A   Overcast
7:34 PM 30.2 °F 18.5 °F 30.2 °F 100% 29.76 in 10.0 mi NNW 17.3 mph 26.5 mph N/A Snow Light Snow
8:14 PM 30.2 °F 18.1 °F 30.2 °F 100% 29.78 in 10.0 mi NNW 18.4 mph 23.0 mph N/A   Overcast
8:34 PM 30.2 °F 17.4 °F 28.4 °F 93% 29.79 in 10.0 mi NNW 20.7 mph 29.9 mph N/A   Overcast
8:54 PM 28.4 °F 14.1 °F 26.6 °F 93% 29.81 in 10.0 mi NNW 24.2 mph - N/A   Scattered Clouds
9:14 PM 28.4 °F 15.4 °F 26.6 °F 93% 29.82 in 10.0 mi NNW 19.6 mph 29.9 mph N/A   Clear
9:33 PM 28.4 °F 14.7 °F 24.8 °F 86% 29.84 in 10.0 mi NNW 21.9 mph 28.8 mph N/A   Clear
9:54 PM 26.6 °F 14.7 °F 24.8 °F 93% 29.86 in 10.0 mi NNW 15.0 mph - N/A   Scattered Clouds
10:14 PM 26.6 °F 13.1 °F 24.8 °F 93% 29.86 in 10.0 mi NNW 19.6 mph 25.3 mph N/A   Mostly Cloudy
10:34 PM 26.6 °F 12.7 °F 24.8 °F 93% 29.88 in 10.0 mi NNW 20.7 mph 26.5 mph N/A   Scattered Clouds
10:54 PM 26.6 °F 13.8 °F 24.8 °F 93% 29.89 in 10.0 mi NNW 17.3 mph - N/A   Scattered Clouds
11:14 PM 26.6 °F 14.3 °F 24.8 °F 93% 29.91 in 10.0 mi NNW 16.1 mph 24.2 mph N/A   Clear
11:34 PM 24.8 °F 11.5 °F 24.8 °F 100% 29.92 in 10.0 mi NNW 17.3 mph - N/A   Scattered Clouds
11:54 PM 26.6 °F 14.3 °F 24.8 °F 93% 29.92 in 10.0 mi NNW 16.1 mph 26.5 mph N/A   Scattered Clouds